This is the latest recevied weather packets stored in our database for station/object CT1ETE-13. If no packets are shown the sender has not sent any weather packets the latest 10 day(s).
| Time | Temp. | Humidity | Pressure | Rain* | Wind** | Luminosity | Snow |
|---|---|---|---|---|---|---|---|
| 1777570291 | 17.22° C | 71% | 1017.6 hPa | 0 mm | - | - | - |
| 1777569385 | 17.22° C | 69% | 1017.5 hPa | 0 mm | - | - | - |
| 1777568494 | 17.22° C | 67% | 1017.5 hPa | 0 mm | - | - | - |
| 1777567525 | 17.78° C | 66% | 1017.4 hPa | 0 mm | - | - | - |
| 1777566633 | 17.22° C | 70% | 1017.4 hPa | 0 mm | - | - | - |
| 1777565783 | 16.67° C | 71% | 1017.4 hPa | 0 mm | - | - | - |
| 1777564828 | 16.67° C | 72% | 1017.4 hPa | 0 mm | - | - | - |
| 1777563983 | 16.67° C | 73% | 1017.3 hPa | 0 mm | - | - | - |
| 1777563031 | 16.11° C | 74% | 1017.3 hPa | 0 mm | - | - | - |
| 1777562117 | 16.11° C | 75% | 1017.5 hPa | 0 mm | - | - | - |
| 1777561217 | 15.56° C | 75% | 1017.6 hPa | 0 mm | - | - | - |
| 1777560317 | 15.56° C | 76% | 1017.5 hPa | 0 mm | - | - | - |
| 1777559416 | 16.11° C | 76% | 1017.4 hPa | 0 mm | - | - | - |
| 1777558517 | 16.67° C | 71% | 1017.4 hPa | 0 mm | - | - | - |
| 1777557678 | 16.67° C | 70% | 1017.3 hPa | 0 mm | - | - | - |
| 1777556717 | 17.22° C | 69% | 1017.2 hPa | 0 mm | - | - | - |
| 1777555817 | 17.22° C | 67% | 1017.1 hPa | 0 mm | - | - | - |
| 1777554917 | 17.22° C | 67% | 1017.1 hPa | 0 mm | - | - | - |
| 1777554019 | 17.22° C | 67% | 1017 hPa | 0 mm | - | - | - |
| 1777553116 | 17.22° C | 67% | 1016.9 hPa | 0 mm | - | - | - |
| 1777552217 | 16.67° C | 71% | 1017 hPa | 0 mm | - | - | - |
| 1777551317 | 16.11° C | 73% | 1017 hPa | 0 mm | - | - | - |
| 1777550417 | 16.11° C | 73% | 1017 hPa | 0 mm | - | - | - |
| 1777549520 | 16.67° C | 73% | 1017 hPa | 0 mm | - | - | - |
| 1777548611 | 16.67° C | 73% | 1017 hPa | 0 mm | - | - | - |
* Rain latest hour (hover to see other rain measurements)
** Current wind speed in m/s (hover to see current wind gust speed)